CW9825 Weather Reports


time (UTC)temp
C
wind
direction
speed
KPH
gust
KPH
rain 1hr
cm
rain 24hr
cm
rain mn
cm
humidity
%
barometer
mb
20260504100542 10 267 4.8 17.7 0.00 0.00 0.00 69 995.7
20260504081530 10 325 12.9 30.6 0.00 0.00 0.00 66 995.4
20260504081033 10 347 12.9 33.8 0.00 0.00 0.00 65 995.4
20260504080528 10 331 20.9 38.6 0.00 0.00 0.00 65 995.6
20260504050551 17 216 17.7 40.2 0.00 0.00 0.00 42 992.4
20260504050117 17 200 17.7 33.8 0.00 0.00 0.00 42 992.5
20260504045548 17 168 14.5 35.4 0.00 0.00 0.00 42 992.7
20260504045048 17 177 17.7 37.0 0.00 0.00 0.00 42 992.8
20260504044548 17 193 12.9 37.0 0.00 0.00 0.00 42 992.8
20260504044047 17 230 20.9 37.0 0.00 0.00 0.00 42 992.9
20260504043546 17 213 14.5 37.0 0.00 0.00 0.00 42 993.0
20260504043046 17 198 16.1 32.2 0.00 0.00 0.00 42 993.1
20260504042544 17 207 17.7 33.8 0.00 0.00 0.00 42 993.2
20260504042044 17 178 24.1 33.8 0.00 0.00 0.00 42 993.2
20260504041546 17 214 19.3 30.6 0.00 0.00 0.00 42 993.3
20260504041043 17 250 19.3 35.4 0.00 0.00 0.00 41 993.6
20260504040542 17 203 19.3 37.0 0.00 0.00 0.00 41 993.8
20260504040042 17 213 17.7 33.8 0.00 0.00 0.00 41 993.9
20260504035541 17 188 22.5 37.0 0.00 0.00 0.00 41 994.1
20260504035040 17 204 14.5 37.0 0.00 0.00 0.00 41 994.2
20260504034548 17 224 16.1 33.8 0.00 0.00 0.00 41 994.3
20260504034040 17 215 16.1 29.0 0.00 0.00 0.00 40 994.6
20260504033638 17 195 14.5 24.1 0.00 0.00 0.00 40 994.6
20260504033036 17 190 14.5 32.2 0.00 0.00 0.00 40 994.7
20260504032536 17 232 16.1 32.2 0.00 0.00 0.00 40 994.9
20260504032038 17 205 16.1 29.0 0.00 0.00 0.00 40 995.0
20260504031545 17 210 17.7 29.0 0.00 0.00 0.00 40 995.1
20260504031033 17 217 14.5 32.2 0.00 0.00 0.00 40 995.2
20260504030532 17 194 12.9 25.7 0.00 0.00 0.00 40 995.3
20260504030039 17 193 16.1 32.2 0.00 0.00 0.00 40 995.4
20260504025535 17 194 14.5 32.2 0.00 0.00 0.00 40 995.5
20260504025032 17 184 16.1 35.4 0.00 0.00 0.00 40 995.6
20260504024530 17 219 16.1 35.4 0.00 0.00 0.00 39 995.6
20260504024031 18 213 14.5 32.2 0.00 0.00 0.00 39 995.7
20260504023529 18 198 16.1 30.6 0.00 0.00 0.00 39 995.9
20260504023028 18 198 16.1 25.7 0.00 0.00 0.00 38 995.9
20260504022529 18 169 14.5 29.0 0.00 0.00 0.00 38 996.0
20260504022027 18 198 11.3 30.6 0.00 0.00 0.00 38 996.0
20260504021526 18 194 16.1 29.0 0.00 0.00 0.00 37 996.1
20260504021025 18 209 16.1 25.7 0.00 0.00 0.00 37 996.2
20260504020525 18 202 16.1 32.2 0.00 0.00 0.00 36 996.2
20260504020028 19 192 19.3 32.2 0.00 0.00 0.00 36 996.3
20260504015525 19 176 16.1 29.0 0.00 0.00 0.00 35 996.4
20260504015024 19 200 16.1 29.0 0.00 0.00 0.00 35 996.5
20260504014524 19 213 12.9 25.7 0.00 0.00 0.00 34 996.6
20260504014022 20 200 12.9 24.1 0.00 0.00 0.00 34 996.8
20260504013521 20 213 16.1 24.1 0.00 0.00 0.00 34 996.9
20260504013020 20 213 12.9 25.7 0.00 0.00 0.00 33 997.0
20260504012522 20 208 14.5 25.7 0.00 0.00 0.00 33 997.2
20260504012019 20 154 12.9 19.3 0.00 0.00 0.00 33 997.3
20260504011518 20 242 11.3 25.7 0.00 0.00 0.00 32 997.4
20260504011016 21 225 9.7 25.7 0.00 0.00 0.00 32 997.5
20260504010516 21 188 9.7 19.3 0.00 0.00 0.00 32 997.5
20260504010015 21 144 8.0 22.5 0.00 0.00 0.00 31 997.8
20260504005514 21 190 6.4 22.5 0.00 0.00 0.00 31 997.9
20260504005014 21 182 8.0 16.1 0.00 0.00 0.00 30 998.0
20260504004514 21 238 4.8 16.1 0.00 0.00 0.00 30 998.1
20260504004015 21 237 1.6 22.5 0.00 0.00 0.00 30 998.2
20260504003511 21 137 6.4 22.5 0.00 0.00 0.00 30 998.4
20260504003011 21 168 4.8 17.7 0.00 0.00 0.00 29 998.5
20260504002509 21 225 6.4 17.7 0.00 0.00 0.00 29 998.6
20260504002009 21 227 9.7 19.3 0.00 0.00 0.00 29 998.7
20260504001510 22 271 4.8 25.7 0.00 0.00 0.00 29 998.8
20260504001007 22 228 12.9 25.7 0.00 0.00 0.00 29 998.8
20260504000510 22 259 8.0 17.7 0.00 0.00 0.00 29 999.0
20260504000007 22 63 4.8 24.1 0.00 0.00 0.00 29 999.0
20260503235505 22 279 9.7 22.5 0.00 0.00 0.00 29 999.2
20260503235005 22 260 8.0 22.5 0.00 0.00 0.00 29 999.3
20260503234508 22 167 8.0 22.5 0.00 0.00 0.00 29 999.3
20260503234004 22 242 11.3 22.5 0.00 0.00 0.00 29 999.5
20260503233503 22 243 11.3 22.5 0.00 0.00 0.00 29 999.6
20260503233002 22 214 8.0 32.2 0.00 0.00 0.00 29 999.7
20260503232501 22 279 12.9 32.2 0.00 0.00 0.00 29 999.7
20260503232101 22 202 12.9 30.6 0.00 0.00 0.00 29 999.8
20260503231600 22 225 11.3 25.7 0.00 0.00 0.00 29 999.9
20260503231100 22 302 9.7 29.0 0.00 0.00 0.00 29 999.9
20260503230559 22 257 12.9 27.4 0.00 0.00 0.00 29 1000.1
20260503225557 22 262 11.3 33.8 0.00 0.00 0.00 29 1000.3
20260503225059 22 328 14.5 33.8 0.00 0.00 0.00 28 1000.4
20260503224556 22 248 9.7 30.6 0.00 0.00 0.00 29 1000.5
20260503224055 22 296 11.3 29.0 0.00 0.00 0.00 28 1000.4
20260503223555 22 289 11.3 27.4 0.00 0.00 0.00 29 1000.5
20260503223054 22 237 9.7 27.4 0.00 0.00 0.00 28 1000.6
20260503222552 22 297 14.5 30.6 0.00 0.00 0.00 28 1000.6
20260503222051 22 283 14.5 40.2 0.00 0.00 0.00 29 1000.6
20260503221551 22 258 11.3 40.2 0.00 0.00 0.00 29 1000.8
20260503221050 22 273 6.4 25.7 0.00 0.00 0.00 30 1000.9
20260503220549 22 208 9.7 25.7 0.00 0.00 0.00 30 1001.2
20260503220048 22 259 9.7 30.6 0.00 0.00 0.00 30 1001.2
20260503215547 22 59 9.7 30.6 0.00 0.00 0.00 30 1001.4
20260503215048 22 245 9.7 30.6 0.00 0.00 0.00 30 1001.6
20260503214554 22 196 11.3 30.6 0.00 0.00 0.00 30 1001.6
20260503214048 22 282 11.3 30.6 0.00 0.00 0.00 30 1001.7
20260503213544 22 263 16.1 27.4 0.00 0.00 0.00 29 1001.8
20260503213106 22 279 11.3 25.7 0.00 0.00 0.00 30 1001.9
20260503212542 22 294 11.3 24.1 0.00 0.00 0.00 30 1002.0
20260503212040 22 209 8.0 25.7 0.00 0.00 0.00 31 1002.1
20260503211602 21 285 12.9 37.0 0.00 0.00 0.00 31 1002.3
20260503211042 21 283 14.5 37.0 0.00 0.00 0.00 31 1002.5
20260503210538 22 267 8.0 27.4 0.00 0.00 0.00 31 1002.5
20260503210038 22 246 16.1 27.4 0.00 0.00 0.00 30 1002.6
20260503205538 22 246 14.5 27.4 0.00 0.00 0.00 31 1002.7
20260503205039 21 243 9.7 27.4 0.00 0.00 0.00 33 1002.7
20260503204552 21 252 11.3 27.4 0.00 0.00 0.00 32 1002.8
20260503204037 21 279 11.3 30.6 0.00 0.00 0.00 33 1002.8
20260503203533 21 196 8.0 30.6 0.00 0.00 0.00 32 1002.9
20260503203035 21 267 14.5 25.7 0.00 0.00 0.00 32 1003.0
20260503202531 21 284 8.0 24.1 0.00 0.00 0.00 33 1003.1
20260503202030 21 281 8.0 25.7 0.00 0.00 0.00 32 1003.3
20260503201531 21 293 12.9 25.7 0.00 0.00 0.00 32 1003.5
20260503201028 21 55 4.8 17.7 0.00 0.00 0.00 33 1003.5
20260503200527 21 286 9.7 19.3 0.00 0.00 0.00 33 1003.8
20260503200128 21 265 6.4 19.3 0.00 0.00 0.00 33 1003.9
20260503195525 21 284 6.4 24.1 0.00 0.00 0.00 33 1004.2
20260503195024 21 285 6.4 29.0 0.00 0.00 0.00 34 1004.4
20260503194525 21 278 8.0 22.5 0.00 0.00 0.00 35 1004.6
20260503194023 21 280 9.7 24.1 0.00 0.00 0.00 33 1004.6
20260503193523 20 216 9.7 24.1 0.00 0.00 0.00 34 1004.8
20260503193020 21 298 8.0 22.5 0.00 0.00 0.00 33 1004.8
20260503192521 21 284 8.0 24.1 0.00 0.00 0.00 33 1004.8
20260503192020 20 217 11.3 24.1 0.00 0.00 0.00 33 1004.8
20260503191519 20 291 11.3 22.5 0.00 0.00 0.00 33 1005.1
20260503191021 20 269 9.7 27.4 0.00 0.00 0.00 34 1005.1
20260503190517 20 302 9.7 27.4 0.00 0.00 0.00 33 1005.3
20260503190016 20 182 8.0 27.4 0.00 0.00 0.00 33 1005.4
20260503185520 20 226 9.7 29.0 0.00 0.00 0.00 34 1005.5
20260503185014 20 264 11.3 29.0 0.00 0.00 0.00 34 1005.5
20260503184513 20 336 8.0 25.7 0.00 0.00 0.00 34 1005.6
20260503184015 19 263 6.4 24.1 0.00 0.00 0.00 33 1005.9
20260503183512 19 296 9.7 24.1 0.00 0.00 0.00 34 1006.0
20260503183012 19 263 12.9 24.1 0.00 0.00 0.00 33 1006.2
20260503182514 19 278 12.9 24.1 0.00 0.00 0.00 33 1006.2
20260503182010 19 331 8.0 24.1 0.00 0.00 0.00 35 1006.4
20260503181509 19 300 8.0 24.1 0.00 0.00 0.00 34 1006.5
20260503181008 18 286 6.4 22.5 0.00 0.00 0.00 35 1006.6
20260503180507 18 257 12.9 22.5 0.00 0.00 0.00 34 1006.8
20260503180016 18 301 9.7 24.1 0.00 0.00 0.00 34 1006.8
20260503175505 18 266 12.9 24.1 0.00 0.00 0.00 35 1006.9
20260503175004 18 228 8.0 22.5 0.00 0.00 0.00 37 1007.0
20260503174512 18 275 12.9 22.5 0.00 0.00 0.00 36 1007.2
20260503174004 17 271 6.4 19.3 0.00 0.00 0.00 37 1007.2
20260503173501 17 269 8.0 19.3 0.00 0.00 0.00 37 1007.2
20260503173131 17 251 11.3 19.3 0.00 0.00 0.00 39 1007.5
20260503172559 17 265 6.4 19.3 0.00 0.00 0.00 39 1007.4
20260503172102 17 262 8.0 17.7 0.00 0.00 0.00 39 1007.4
20260503171557 17 317 9.7 17.7 0.00 0.00 0.00 39 1007.5
20260503171056 17 296 8.0 16.1 0.00 0.00 0.00 39 1007.7
20260503170554 16 270 1.6 11.3 0.00 0.00 0.00 40 1007.8
20260503150530 12 318 8.0 14.5 0.00 0.00 0.00 52 1009.2
20260503131002 7 325 4.8 12.9 0.00 0.00 0.00 64 1009.3
20260503130504 7 302 4.8 12.9 0.00 0.00 0.00 65 1009.4
20260503110545 6 341 9.7 19.3 0.00 0.00 0.00 66 1008.2